STARLINK-35324 (65838 NORAD) Tracking and Keplerian Element Data

This shows tracking and keplerian element data for the satellite.

Feedback or suggestion? Click here.




ElementValue
Catalog65838
NameSTARLINK-35324
Epoch Orbit1245
Epoch Day353.52165098
Epoch Year2025
RAAN101.1228
Inclination53.16
Eccentricity0.0001261
Argument of Perigee86.6244
Mean Anonmoly273.4901
Mean Motion15.30201505
Decay Rate0.00018967
L11 65838U 25221R 25353.52165098 .00018967 00000+0 65086-3 0 9994
L22 65838 53.1600 101.1228 0001261 86.6244 273.4901 15.30201505 12452



Live tracking and technical data element details for STARLINK-35324 (NORAD 65838). STARLINK-35324 can be tracked NOW for your location showing map with azimuth and elevation plus other details from your city location.







IsCatalogInMostPopularTable: catalog: 65838, numindb: 10
Update: records affected: 1



GetName: 65838 STARLINK-35324

Hit Count: updated at: Thu, 16 Apr 2026 05:59:02 GMT